Content
SEND FEEDBACK

Daily
Averages
Monthly
Summary
United States of America

WHITE EARTH, NORTH DAKOTA


Home > North America > United States > North Dakota
Elevation: 2259 feet     Latitude: 48 24N     Longitude: 102 55W

WEATHER
 
SELECT A DAY
Number of Records: 82,693;   Date Range: 12/7/10 - 9/13/14
 
SHARE

PRINT THIS DATA

[ ← Previous Day ]
WEATHER ALMANAC - APRIL 7, 2014
[ Next Day → ]
[ °C ]   °F
Weather ElementAverageHighLow
Temperature38.7 °F48.2 °F (12:15 pm)28.4 °F (1:15 am)
Dewpoint31.2 °F39.2 °F (9:55 am)24.8 °F (5:15 pm)
Humidity78.6 %100 % (12:35 am)40 % (5:15 pm)
Barometer29.96 in30.04 in (9:35 pm)29.85 in (12:35 am)
Wind Speed11.7 mph25.3 mph (2:55 pm)
Wind Gust35.7 mph (1:55 pm)
Weather ElementAverage
Visibility10 mi
Wind DirectionWNW (297 °)

Weather ElementTotal
Precipitation---
Heating Degree Days26.7 (Base 65)
Averaged from 69 records on April 7, 2014
WEATHER CONDITIONS BREAKOUT
WIND DIRECTION BREAKOUT
WEATHER BY HOUR - APRIL 7, 2014
[ °C ]   °F
Local TimeTemperatureDewpointHumidityBarometerVisibilityWind DirectionWind SpeedGust SpeedPrecipitationEventsConditions
12:35 AM32.0 °F32.0 °F100 %29.85 in10.0 miCalmMostly Cloudy
12:55 AM32.0 °F32.0 °F100 %29.85 in10.0 miCalmMostly Cloudy
1:15 AM28.4 °F28.4 °F100 %29.86 in10.0 miSW (220°)4.6 mphOvercast
1:35 AM28.4 °F28.4 °F100 %29.86 in10.0 miSW (220°)3.5 mphMostly Cloudy
1:55 AM28.4 °F28.4 °F100 %29.86 in10.0 miCalmOvercast
2:15 AM28.4 °F28.4 °F100 %29.87 in10.0 miWest (270°)3.5 mphOvercast
2:35 AM30.2 °F30.2 °F100 %29.88 in10.0 miWNW (290°)4.6 mphOvercast
2:55 AM32.0 °F32.0 °F100 %29.88 in10.0 miWSW (250°)4.6 mphOvercast
3:15 AM32.0 °F32.0 °F100 %29.88 in10.0 miWNW (300°)11.5 mphOvercast
3:35 AM32.0 °F32.0 °F100 %29.89 in10.0 miWNW (300°)10.4 mphOvercast
3:55 AM32.0 °F32.0 °F100 %29.89 in10.0 miNW (310°)8.1 mphOvercast
4:15 AM32.0 °F32.0 °F100 %29.89 in10.0 miNW (310°)5.8 mphOvercast
4:35 AM32.0 °F32.0 °F100 %29.89 in10.0 miWNW (290°)6.9 mphOvercast
4:55 AM32.0 °F32.0 °F100 %29.90 in10.0 miNW (310°)8.1 mphOvercast
5:15 AM33.8 °F32.0 °F93 %29.90 in10.0 miNW (310°)6.9 mphOvercast
5:35 AM35.6 °F35.6 °F100 %29.90 in10.0 miNW (310°)9.2 mphOvercast
5:55 AM35.6 °F35.6 °F100 %29.91 in10.0 miWest (280°)10.4 mphOvercast
6:15 AM35.6 °F35.6 °F100 %29.91 in10.0 miWNW (300°)11.5 mphOvercast
6:35 AM35.6 °F35.6 °F100 %29.92 in10.0 miNW (310°)10.4 mphOvercast
6:55 AM37.4 °F37.4 °F100 %29.94 in10.0 miNNW (330°)10.4 mphOvercast
7:15 AM35.6 °F35.6 °F100 %29.94 in10.0 miNNW (330°)8.1 mphOvercast
7:35 AM35.6 °F35.6 °F100 %29.94 in10.0 miNW (320°)5.8 mphMostly Cloudy
7:55 AM33.8 °F33.8 °F100 %29.95 in10.0 miWest (280°)6.9 mphScattered Clouds
8:15 AM32.0 °F32.0 °F100 %29.95 in10.0 miWNW (300°)8.1 mphPartly Cloudy
8:35 AM35.6 °F35.6 °F100 %29.96 in10.0 miWNW (300°)11.5 mphPartly Cloudy
8:55 AM37.4 °F37.4 °F100 %29.96 in10.0 miWNW (300°)10.4 mphScattered Clouds
9:15 AM37.4 °F37.4 °F100 %29.96 in10.0 miWNW (290°)10.4 mph19.6 mphClear
9:35 AM37.4 °F37.4 °F100 %29.96 in10.0 miWest (280°)13.8 mph19.6 mphClear
9:55 AM39.2 °F39.2 °F100 %29.96 in10.0 miWest (280°)12.7 mph20.7 mphClear
10:15 AM41.0 °F39.2 °F93 %29.96 in10.0 miWNW (290°)13.8 mph19.6 mphClear
10:35 AM44.6 °F39.2 °F81 %29.96 in10.0 miWNW (290°)12.7 mph19.6 mphClear
11:15 AM46.4 °F37.4 °F71 %29.96 in10.0 miWest (280°)13.8 mph20.7 mphClear
11:35 AM46.4 °F37.4 °F71 %29.97 in10.0 miWNW (290°)18.4 mph25.3 mphClear
11:55 AM46.4 °F35.6 °F66 %29.97 in10.0 miWNW (290°)17.3 mph23.0 mphClear
12:15 PM48.2 °F33.8 °F58 %29.97 in10.0 miNW (310°)20.7 mph28.8 mphClear
12:35 PM48.2 °F35.6 °F62 %29.98 in10.0 miNW (310°)18.4 mph28.8 mphClear
12:55 PM46.4 °F32.0 °F57 %29.98 in10.0 miNW (320°)21.9 mph29.9 mphClear
1:15 PM48.2 °F32.0 °F54 %29.97 in10.0 miNW (320°)20.7 mph31.1 mphClear
1:35 PM48.2 °F32.0 °F54 %29.97 in10.0 miNNW (330°)23.0 mph32.2 mphPartly Cloudy
1:55 PM48.2 °F32.0 °F54 %29.97 in10.0 miNNW (330°)20.7 mph35.7 mphPartly Cloudy
2:15 PM46.4 °F32.0 °F57 %29.97 in10.0 miNNW (330°)20.7 mph32.2 mphScattered Clouds
2:35 PM48.2 °F32.0 °F54 %29.97 in10.0 miNNW (330°)20.7 mph33.4 mphMostly Cloudy
2:55 PM48.2 °F32.0 °F54 %29.97 in10.0 miNNW (340°)25.3 mph32.2 mphScattered Clouds
3:15 PM48.2 °F32.0 °F54 %29.98 in10.0 miNNW (330°)24.2 mph35.7 mphScattered Clouds
3:35 PM48.2 °F28.4 °F46 %29.98 in10.0 miNW (320°)24.2 mph31.1 mphPartly Cloudy
3:55 PM48.2 °F28.4 °F46 %29.99 in10.0 miNNW (340°)20.7 mph29.9 mphPartly Cloudy
4:15 PM48.2 °F28.4 °F46 %29.99 in10.0 miNNW (330°)21.9 mph31.1 mphPartly Cloudy
4:35 PM48.2 °F26.6 °F43 %29.99 in10.0 miNNW (330°)18.4 mph32.2 mphPartly Cloudy
4:55 PM48.2 °F26.6 °F43 %30.00 in10.0 miNorth (350°)19.6 mph31.1 mphPartly Cloudy
5:15 PM48.2 °F24.8 °F40 %30.00 in10.0 miNNW (340°)23.0 mph29.9 mphClear
5:35 PM48.2 °F24.8 °F40 %30.00 in10.0 miNorth (350°)19.6 mph28.8 mphClear
5:55 PM48.2 °F24.8 °F40 %30.01 in10.0 miNorth (350°)21.9 mph27.6 mphClear
6:15 PM48.2 °F24.8 °F40 %30.01 in10.0 miNorth (350°)20.7 mph26.5 mphClear
6:35 PM46.4 °F24.8 °F43 %30.01 in10.0 miNorth (350°)18.4 mph24.2 mphClear
6:55 PM46.4 °F24.8 °F43 %30.02 in10.0 miNorth (350°)13.8 mphClear
7:15 PM44.6 °F26.6 °F49 %30.02 in10.0 miNorth (360°)9.2 mphClear
7:35 PM44.6 °F26.6 °F49 %30.02 in10.0 miNorth (360°)8.1 mphClear
7:55 PM42.8 °F28.4 °F57 %30.02 in10.0 miNorth (350°)5.8 mphClear
8:15 PM39.2 °F28.4 °F65 %30.02 in10.0 miNorth (360°)6.9 mphClear
8:55 PM33.8 °F28.4 °F81 %30.03 in10.0 miNorth (360°)4.6 mphClear
9:15 PM33.8 °F28.4 °F81 %30.03 in10.0 miNorth (350°)4.6 mphClear
9:35 PM32.0 °F26.6 °F80 %30.04 in10.0 miNorth (360°)4.6 mphClear
9:55 PM32.0 °F28.4 °F87 %30.04 in10.0 miNorth (350°)3.5 mphClear
10:15 PM28.4 °F26.6 °F93 %30.04 in10.0 miWSW (250°)5.8 mphClear
10:35 PM28.4 °F26.6 °F93 %30.04 in10.0 miWest (280°)4.6 mphPartly Cloudy
10:55 PM28.4 °F26.6 °F93 %30.04 in10.0 miWest (260°)3.5 mphPartly Cloudy
11:15 PM28.4 °F26.6 °F93 %30.03 in10.0 miWest (260°)3.5 mphPartly Cloudy
11:35 PM28.4 °F28.4 °F100 %30.03 in10.0 miWSW (250°)3.5 mphClear
11:55 PM28.4 °F28.4 °F100 %30.03 in10.0 miWNW (300°)3.5 mphMostly Cloudy
Hourly data recorded from K08D, located miles away from White Earth, North Dakota







STORIES FROM OUR PARTNERS